Newton, KS

8:24 AM CDT on September 19, 2019 (GMT -0500)
Newton City County

Weather History for KEWK - July, 2019

Change the Weather History Date:

Saturday, July 13, 2019

  Actual Average Record
Temperature  
Mean Temperature 77 °F -  
Max Temperature 88 °F 88 °F 100 °F (2017)
Min Temperature 66 °F 67 °F 55 °F (2008)
Cooling Degree Days 12    
Growing Degree Days 27 (Base 50)    
Moisture  
Dew Point 66 °F    
Average Humidity 70    
Maximum Humidity 93    
Minimum Humidity 46    
Precipitation  
Precipitation 0.00 in - - ()
Sea Level Pressure  
Sea Level Pressure 30.00 in    
Wind  
Wind Speed 7 mph (ESE)    
Max Wind Speed 15 mph    
Max Gust Speed -    
Visibility 10 miles    
Events      
Averages and records for this station are not official NWS values.
T = Trace of Precipitation, MM = Missing Value Source: NWS Daily Summary

Daily Weather History Graph

Daily Weather History Graph

Search for Another Location

Airport or City:

Astronomy

Jul. 13, 2019 Rise Set
Actual Time 6:16 AM CDT 8:52 PM CDT
Civil Twilight 5:46 AM CDT 9:23 PM CDT
Nautical Twilight 5:07 AM CDT 10:01 PM CDT
Astronomical Twilight 4:25 AM CDT 10:43 PM CDT
Moon 6:16 PM CDT (7/13) 3:36 AM CDT (7/13)
Length of Visible Light 15h 37m
Length of Day
14h 35m
Waxing Gibbous, 90% of the Moon is Illuminated
Jul 13
Waxing Gibbous
Jul 16
Full
Jul 24
Last Quarter
Jul 31
New
Aug 7
First Quarter

Hourly Weather History & Observations

Time (CDT) Temp. Heat Index Dew Point Humidity Pressure Visibility Wind Dir Wind Speed Gust Speed Precip Events Conditions
12:56 AM 70.0 °F - 64.9 °F 84% 29.98 in 10.0 mi SE 5.8 mph - N/A   Clear
1:56 AM 70.0 °F - 64.9 °F 84% 29.97 in 10.0 mi SE 6.9 mph - N/A   Clear
2:56 AM 66.9 °F - 64.9 °F 93% 29.97 in 10.0 mi SE 6.9 mph - N/A   Clear
3:56 AM 66.9 °F - 64.0 °F 90% 29.96 in 10.0 mi ESE 5.8 mph - N/A   Clear
4:56 AM 66.0 °F - 64.0 °F 93% 29.96 in 10.0 mi SSE 8.1 mph - N/A   Clear
5:56 AM 66.9 °F - 64.0 °F 90% 29.99 in 10.0 mi East 4.6 mph - N/A   Clear
6:56 AM 66.9 °F - 64.9 °F 93% 30.01 in 10.0 mi East 4.6 mph - N/A   Clear
7:56 AM 72.0 °F - 66.9 °F 84% 30.04 in 10.0 mi East 4.6 mph - N/A   Clear
8:56 AM 77.0 °F - 68.0 °F 74% 30.04 in 10.0 mi ESE 6.9 mph - N/A   Clear
9:56 AM 80.1 °F 82.7 °F 68.0 °F 67% 30.04 in 10.0 mi SSE 10.4 mph - N/A   Clear
10:56 AM 82.0 °F 84.1 °F 66.0 °F 58% 30.04 in 10.0 mi ESE 6.9 mph - N/A   Clear
11:56 AM 84.0 °F 86.5 °F 66.9 °F 56% 30.03 in 10.0 mi SE 10.4 mph - N/A   Mostly Cloudy
12:56 PM 84.9 °F 87.1 °F 66.0 °F 53% 30.02 in 10.0 mi ESE 10.4 mph - N/A   Clear
1:56 PM 86.0 °F 88.8 °F 66.9 °F 53% 30.00 in 10.0 mi SE 15.0 mph - N/A   Clear
2:56 PM 87.1 °F 88.9 °F 64.9 °F 48% 30.00 in 10.0 mi ESE 11.5 mph - N/A   Clear
3:56 PM 88.0 °F 89.6 °F 64.9 °F 46% 29.98 in 10.0 mi SE 9.2 mph - N/A   Clear
5:56 PM 88.0 °F 90.7 °F 66.9 °F 49% 29.97 in 10.0 mi SE 6.9 mph - N/A   Clear
6:56 PM 86.0 °F 88.8 °F 66.9 °F 53% 29.96 in 10.0 mi ESE 11.5 mph - N/A   Clear
7:56 PM 84.0 °F 86.5 °F 66.9 °F 56% 29.97 in 8.0 mi ESE 8.1 mph - N/A   Clear
8:56 PM 79.0 °F - 66.9 °F 66% 29.98 in 10.0 mi SE 4.6 mph - N/A   Clear
9:56 PM 77.0 °F - 66.0 °F 69% 29.99 in 10.0 mi ESE 6.9 mph - N/A   Clear
10:56 PM 73.0 °F - 66.0 °F 79% 30.01 in 10.0 mi ESE 5.8 mph - N/A   Clear
11:56 PM 73.0 °F - 66.0 °F 79% 30.02 in 10.0 mi ESE 4.6 mph - N/A   Clear